Time,TemperatureF,DewpointF,PressureIn,WindDirection,WindDirectionDegrees,WindSpeedMPH,WindSpeedGustMPH,Humidity,HourlyPrecipIn,Conditions,Clouds,dailyrainin,SoftwareType,DateUTC
2013-07-05 00:12:00,80.0,-99.9,30.09,North,-999,-999.0,-999.0,-999,-99.99,,,-99.99,,2013-07-05 04:12:00,
2013-07-05 00:22:00,81.0,-99.9,30.09,North,-999,-999.0,-999.0,-999,-99.99,,,-99.99,,2013-07-05 04:22:00,
2013-07-05 00:33:00,81.0,-99.9,30.08,North,-999,-999.0,-999.0,-999,-99.99,,,-99.99,,2013-07-05 04:33:00,
2013-07-05 00:43:00,82.0,-99.9,30.08,North,-999,-999.0,-999.0,-999,-99.99,,,-99.99,,2013-07-05 04:43:00,
2013-07-05 00:53:00,82.0,-99.9,30.08,North,-999,-999.0,-999.0,-999,-99.99,,,-99.99,,2013-07-05 04:53:00,
2013-07-05 01:01:00,82.0,-99.9,30.08,North,-999,-999.0,-999.0,-999,-99.99,,,-99.99,,2013-07-05 05:01:00,
2013-07-05 01:12:00,82.0,-99.9,30.09,North,-999,-999.0,-999.0,-999,-99.99,,,-99.99,,2013-07-05 05:12:00,
2013-07-05 01:22:00,81.0,-99.9,-100.00,North,-999,-999.0,-999.0,-999,-99.99,,,-99.99,,2013-07-05 05:22:00,
2013-07-05 01:33:00,81.0,-99.9,-100.00,North,-999,-999.0,-999.0,-999,-99.99,,,-99.99,,2013-07-05 05:33:00,
2013-07-05 01:43:00,81.0,-99.9,30.08,North,-999,-999.0,-999.0,-999,-99.99,,,-99.99,,2013-07-05 05:43:00,
2013-07-05 01:52:00,81.0,-99.9,30.07,North,-999,-999.0,-999.0,-999,-99.99,,,-99.99,,2013-07-05 05:52:00,
2013-07-05 02:13:00,81.0,-99.9,-100.00,North,-999,-999.0,-999.0,-999,-99.99,,,-99.99,,2013-07-05 06:13:00,
2013-07-05 02:34:00,81.0,-99.9,30.05,North,-999,-999.0,-999.0,-999,-99.99,,,-99.99,,2013-07-05 06:34:00,
2013-07-05 02:53:00,81.0,-99.9,-100.00,North,-999,-999.0,-999.0,-999,-99.99,,,-99.99,,2013-07-05 06:53:00,
2013-07-05 03:12:00,81.0,-99.9,-100.00,North,-999,-999.0,-999.0,-999,-99.99,,,-99.99,,2013-07-05 07:12:00,
2013-07-05 03:23:00,80.0,-99.9,30.04,North,-999,-999.0,-999.0,-999,-99.99,,,-99.99,,2013-07-05 07:23:00,
2013-07-05 03:34:00,80.0,-99.9,30.03,North,-999,-999.0,-999.0,-999,-99.99,,,-99.99,,2013-07-05 07:34:00,
2013-07-05 03:43:00,80.0,-99.9,30.03,North,-999,-999.0,-999.0,-999,-99.99,,,-99.99,,2013-07-05 07:43:00,
2013-07-05 04:03:00,80.0,-99.9,30.03,North,-999,-999.0,-999.0,-999,-99.99,,,-99.99,,2013-07-05 08:03:00,
2013-07-05 04:12:00,80.0,-99.9,30.02,North,-999,-999.0,-999.0,-999,-99.99,,,-99.99,,2013-07-05 08:12:00,
2013-07-05 04:23:00,80.0,-99.9,30.02,North,-999,-999.0,-999.0,-999,-99.99,,,-99.99,,2013-07-05 08:23:00,
2013-07-05 04:44:00,79.0,-99.9,-100.00,North,-999,-999.0,-999.0,-999,-99.99,,,-99.99,,2013-07-05 08:44:00,
2013-07-05 04:59:00,78.0,-99.9,-100.00,North,-999,-999.0,-999.0,-999,-99.99,,,-99.99,,2013-07-05 08:59:00,
2013-07-05 05:09:00,78.0,-99.9,30.01,North,-999,-999.0,-999.0,-999,-99.99,,,-99.99,,2013-07-05 09:09:00,
2013-07-05 05:16:00,79.0,-99.9,30.01,North,-999,-999.0,-999.0,-999,-99.99,,,-99.99,,2013-07-05 09:16:00,
2013-07-05 05:48:00,80.0,-99.9,30.02,North,-999,-999.0,-999.0,-999,-99.99,,,-99.99,,2013-07-05 09:48:00,
2013-07-05 05:58:00,80.0,-99.9,30.01,North,-999,-999.0,-999.0,-999,-99.99,,,-99.99,,2013-07-05 09:58:00,
2013-07-05 06:09:00,80.0,-99.9,30.01,North,-999,-999.0,-999.0,-999,-99.99,,,-99.99,,2013-07-05 10:09:00,
2013-07-05 06:58:00,81.0,-99.9,30.02,North,-999,-999.0,-999.0,-999,-99.99,,,-99.99,,2013-07-05 10:58:00,
2013-07-05 07:11:00,81.0,-99.9,30.02,North,-999,-999.0,-999.0,-999,-99.99,,,-99.99,,2013-07-05 11:11:00,
2013-07-05 07:18:00,81.0,-99.9,30.02,North,-999,-999.0,-999.0,-999,-99.99,,,-99.99,,2013-07-05 11:18:00,
2013-07-05 07:25:00,81.0,-99.9,-100.00,North,-999,-999.0,-999.0,-999,-99.99,,,-99.99,,2013-07-05 11:25:00,
2013-07-05 07:51:00,81.0,-99.9,30.03,North,-999,-999.0,-999.0,-999,-99.99,,,-99.99,,2013-07-05 11:51:00,
2013-07-05 08:00:00,82.0,-99.9,30.04,North,-999,-999.0,-999.0,-999,-99.99,,,-99.99,,2013-07-05 12:00:00,
2013-07-05 08:11:00,82.0,-99.9,30.04,North,-999,-999.0,-999.0,-999,-99.99,,,-99.99,,2013-07-05 12:11:00,
2013-07-05 08:18:00,82.0,-99.9,-100.00,North,-999,-999.0,-999.0,-999,-99.99,,,-99.99,,2013-07-05 12:18:00,
2013-07-05 08:28:00,82.0,-99.9,-100.00,North,-999,-999.0,-999.0,-999,-99.99,,,-99.99,,2013-07-05 12:28:00,
2013-07-05 08:38:00,82.0,-99.9,30.04,North,-999,-999.0,-999.0,-999,-99.99,,,-99.99,,2013-07-05 12:38:00,
2013-07-05 09:00:00,81.0,-99.9,30.05,North,-999,-999.0,-999.0,-999,-99.99,,,-99.99,,2013-07-05 13:00:00,
2013-07-05 09:07:00,80.0,-99.9,30.06,North,-999,-999.0,-999.0,-999,-99.99,,,-99.99,,2013-07-05 13:07:00,
2013-07-05 09:14:00,80.0,-99.9,30.06,North,-999,-999.0,-999.0,-999,-99.99,,,-99.99,,2013-07-05 13:14:00,
2013-07-05 09:41:00,81.0,-99.9,-100.00,North,-999,-999.0,-999.0,-999,-99.99,,,-99.99,,2013-07-05 13:41:00,
2013-07-05 10:17:00,84.0,-99.9,-100.00,North,-999,-999.0,-999.0,-999,-99.99,,,-99.99,,2013-07-05 14:17:00,
2013-07-05 10:49:00,84.0,-99.9,-100.00,North,-999,-999.0,-999.0,-999,-99.99,,,-99.99,,2013-07-05 14:49:00,
2013-07-05 11:18:00,80.0,-99.9,30.07,North,-999,-999.0,-999.0,-999,-99.99,,,-99.99,,2013-07-05 15:18:00,
2013-07-05 11:26:00,80.0,-99.9,30.07,North,-999,-999.0,-999.0,-999,-99.99,,,-99.99,,2013-07-05 15:26:00,
2013-07-05 11:34:00,79.0,-99.9,-100.00,North,-999,-999.0,-999.0,-999,-99.99,,,-99.99,,2013-07-05 15:34:00,
2013-07-05 13:02:00,84.0,-99.9,30.07,North,-999,-999.0,-999.0,-999,-99.99,,,-99.99,,2013-07-05 17:02:00,
2013-07-05 13:22:00,85.0,-99.9,30.07,North,-999,-999.0,-999.0,-999,-99.99,,,-99.99,,2013-07-05 17:22:00,
2013-07-05 13:43:00,87.0,-99.9,30.07,North,-999,-999.0,-999.0,-999,-99.99,,,-99.99,,2013-07-05 17:43:00,
2013-07-05 14:43:00,89.0,-99.9,30.07,North,-999,-999.0,-999.0,-999,-99.99,,,-99.99,,2013-07-05 18:43:00,
2013-07-05 14:53:00,89.0,-99.9,30.07,North,-999,-999.0,-999.0,-999,-99.99,,,-99.99,,2013-07-05 18:53:00,
2013-07-05 15:22:00,88.0,-99.9,30.05,North,-999,-999.0,-999.0,-999,-99.99,,,-99.99,,2013-07-05 19:22:00,
2013-07-05 16:43:00,76.0,-99.9,30.05,North,-999,-999.0,-999.0,-999,-99.99,,,-99.99,,2013-07-05 20:43:00,
2013-07-05 17:02:00,76.0,-99.9,30.05,North,-999,-999.0,-999.0,-999,-99.99,,,-99.99,,2013-07-05 21:02:00,
2013-07-05 17:22:00,77.0,-99.9,30.04,North,-999,-999.0,-999.0,-999,-99.99,,,-99.99,,2013-07-05 21:22:00,
2013-07-05 17:43:00,78.0,-99.9,-100.00,North,-999,-999.0,-999.0,-999,-99.99,,,-99.99,,2013-07-05 21:43:00,
2013-07-05 18:02:00,79.0,-99.9,30.02,North,-999,-999.0,-999.0,-999,-99.99,,,-99.99,,2013-07-05 22:02:00,
2013-07-05 18:12:00,79.0,-99.9,-100.00,North,-999,-999.0,-999.0,-999,-99.99,,,-99.99,,2013-07-05 22:12:00,
2013-07-05 18:34:00,79.0,-99.9,30.02,North,-999,-999.0,-999.0,-999,-99.99,,,-99.99,,2013-07-05 22:34:00,
2013-07-05 18:43:00,80.0,-99.9,30.02,North,-999,-999.0,-999.0,-999,-99.99,,,-99.99,,2013-07-05 22:43:00,
2013-07-05 18:53:00,79.0,-99.9,30.02,North,-999,-999.0,-999.0,-999,-99.99,,,-99.99,,2013-07-05 22:53:00,
2013-07-05 19:02:00,79.0,-99.9,30.02,North,-999,-999.0,-999.0,-999,-99.99,,,-99.99,,2013-07-05 23:02:00,
2013-07-05 19:11:00,79.0,-99.9,-100.00,North,-999,-999.0,-999.0,-999,-99.99,,,-99.99,,2013-07-05 23:11:00,
2013-07-05 19:32:00,79.0,-99.9,30.02,North,-999,-999.0,-999.0,-999,-99.99,,,-99.99,,2013-07-05 23:32:00,
2013-07-05 19:43:00,79.0,-99.9,30.02,North,-999,-999.0,-999.0,-999,-99.99,,,-99.99,,2013-07-05 23:43:00,
2013-07-05 19:53:00,79.0,-99.9,-100.00,North,-999,-999.0,-999.0,-999,-99.99,,,-99.99,,2013-07-05 23:53:00,
2013-07-05 20:12:00,78.0,-99.9,-100.00,North,-999,-999.0,-999.0,-999,-99.99,,,-99.99,,2013-07-06 00:12:00,
2013-07-05 20:22:00,78.0,-99.9,30.03,North,-999,-999.0,-999.0,-999,-99.99,,,-99.99,,2013-07-06 00:22:00,
2013-07-05 20:43:00,78.0,-99.9,-100.00,North,-999,-999.0,-999.0,-999,-99.99,,,-99.99,,2013-07-06 00:43:00,
2013-07-05 21:02:00,80.0,-99.9,30.04,North,-999,-999.0,-999.0,-999,-99.99,,,-99.99,,2013-07-06 01:02:00,
2013-07-05 21:12:00,80.0,-99.9,-100.00,North,-999,-999.0,-999.0,-999,-99.99,,,-99.99,,2013-07-06 01:12:00,
2013-07-05 21:33:00,80.0,-99.9,30.05,North,-999,-999.0,-999.0,-999,-99.99,,,-99.99,,2013-07-06 01:33:00,
2013-07-05 21:43:00,80.0,-99.9,30.06,North,-999,-999.0,-999.0,-999,-99.99,,,-99.99,,2013-07-06 01:43:00,
2013-07-05 22:43:00,80.0,-99.9,-100.00,North,-999,-999.0,-999.0,-999,-99.99,,,-99.99,,2013-07-06 02:43:00,
2013-07-05 23:02:00,80.0,-99.9,-100.00,North,-999,-999.0,-999.0,-999,-99.99,,,-99.99,,2013-07-06 03:02:00,